COSMOS 2374 (GLONASS) 1 26566U 00063C 10209.98645712 +.00000027 +00000-0 +10000-3 0 07337 2 26566 064.5322 150.2946 0055350 215.3018 144.3161 02.13100224076181 COSMOS 2382 (GLONASS) 1 26987U 01053A 10210.15727371 +.00000007 +00000-0 +10000-3 0 03623 2 26987 063.4138 265.5396 0007239 182.2478 177.8365 02.13105413067378 COSMOS 2381 (GLONASS) 1 26988U 01053B 10210.50183446 +.00000007 +00000-0 +10000-3 0 03688 2 26988 063.4168 265.5316 0029078 208.7063 151.2198 02.13104084067398 COSMOS 2394 (GLONASS) 1 27617U 02060A 10210.64791432 +.00000033 +00000-0 +10000-3 0 00116 2 27617 064.7323 150.8346 0000692 182.3120 177.6747 02.13102627059132 COSMOS 2396 (GLONASS) 1 27618U 02060B 10210.07007022 +.00000028 +00000-0 +10000-3 0 00359 2 27618 064.7334 150.8289 0014675 158.5639 201.4866 02.13101691059102 COSMOS 2395 (GLONASS) 1 27619U 02060C 10211.05894784 .00000000 00000-0 10000-3 0 471 2 27619 064.7387 150.8740 0008868 227.8142 132.1101 02.13103889 59124 COSMOS 2404 (GLONASS) 1 28112U 03056A 10210.22517242 +.00000003 +00000-0 +10000-3 0 08386 2 28112 063.7166 268.1965 0041972 100.9012 259.6577 02.13087694051623 COSMOS 2402 (GLONASS) 1 28113U 03056B 10210.43958107 .00000003 00000-0 10000-3 0 7614 2 28113 063.7349 268.2054 0037669 096.4103 264.1052 02.13104681 51631 COSMOS 2403 (GLONASS) 1 28114U 03056C 10211.49411017 .00000004 00000-0 10000-3 0 7257 2 28114 063.7387 268.1863 0038303 076.8996 283.6119 02.13104053 51654 COSMOS 2413 (GLONASS) 1 28508U 04053A 10210.38494064 +.00000005 +00000-0 +10000-3 0 04643 2 28508 063.6184 266.9771 0010908 170.9626 189.1436 02.13104085043496 COSMOS 2411 (GLONASS) 1 28509U 04053B 10210.81703873 .00000005 00000-0 10000-3 0 5554 2 28509 063.6132 266.9333 0006663 172.1046 238.7111 02.13098185 43503 COSMOS 2412 (GLONASS) 1 28510U 04053C 10210.33298580 +.00000005 +00000-0 +10000-3 0 04679 2 28510 063.6257 267.0054 0004254 196.8244 163.2483 02.13103334043497 COSMOS 2419 (GLONASS) 1 28915U 05050A 10210.76537807 +.00000034 +00000-0 +10000-3 0 02839 2 28915 064.8664 150.3097 0008404 331.8215 057.2424 02.13076478035757 COSMOS 2418 (GLONASS) 1 28916U 05050B 10210.76789771 +.00000034 +00000-0 +10000-3 0 02086 2 28916 064.8860 150.3457 0018663 336.8583 023.0508 02.13104966035755 COSMOS 2417 (GLONASS) 1 28917U 05050C 10210.17864886 +.00000029 +00000-0 +00000-0 0 01734 2 28917 064.8685 150.3423 0014516 143.0249 217.0660 02.13103260035732 COSMOS 2425 (GLONASS) 1 29670U 06062A 10210.91627581 -.00000038 +00000-0 +10000-3 0 09942 2 29670 065.6120 029.1801 0022103 354.6546 149.0890 02.13100925027955 COSMOS 2426 (GLONASS) 1 29671U 06062B 10210.94067455 -.00000038 +00000-0 +10000-3 0 00125 2 29671 065.6290 029.2163 0019075 162.5793 227.6262 02.13103421027961 COSMOS 2424 (GLONASS) 1 29672U 06062C 10210.86183051 -.00000039 00000-0 10000-3 0 219 2 29672 065.6136 029.1863 0016716 160.8263 349.1518 02.13103472 27958 COSMOS 2433 (GLONASS) 1 32275U 07052A 10210.57482093 .00000032 00000-0 00000+0 0 7548 2 32275 064.8794 150.0566 0004211 276.0555 160.6232 02.13102327 21464 COSMOS 2432 (GLONASS) 1 32276U 07052B 10210.25263387 +.00000030 +00000-0 +10000-3 0 07348 2 32276 064.8928 150.0980 0015442 334.6534 168.9048 02.13102087021458 COSMOS 2431 (GLONASS) 1 32277U 07052C 10210.09754640 +.00000028 +00000-0 +00000-0 0 07420 2 32277 064.8958 150.0993 0018392 196.5744 323.5629 02.13102347021533 COSMOS 2434 (GLONASS) 1 32393U 07065A 10210.87417977 -.00000039 00000-0 00000+0 0 5888 2 32393 065.2350 029.5177 0006444 115.4839 086.8373 02.13103006 20174 COSMOS 2435 (GLONASS) 1 32394U 07065B 10210.64253374 -.00000040 +00000-0 +00000-0 0 04885 2 32394 065.2352 029.5284 0004494 089.1743 116.1270 02.13103175020103 COSMOS 2436 (GLONASS) 1 32395U 07065C 10210.29032663 -.00000041 +00000-0 +10000-3 0 05036 2 32395 065.2458 029.5454 0017033 001.8621 203.6387 02.13103254020096 COSMOS 2442 (GLONASS) 1 33378U 08046A 10210.93344706 +.00000034 +00000-0 +10000-3 0 05304 2 33378 064.7930 149.6437 0028387 332.9564 063.3141 02.13102248014331 COSMOS 2443 (GLONASS) 1 33379U 08046B 10210.30872692 +.00000030 +00000-0 +10000-3 0 05188 2 33379 064.8007 149.7028 0020373 187.8134 314.7841 02.13102376014323 COSMOS 2444 (GLONASS) 1 33380U 08046C 10210.81796970 .00000034 00000-0 10000-3 0 5173 2 33380 064.8095 149.6993 0029929 326.1240 162.3791 02.13102751 14322 COSMOS 2447 (GLONASS) 1 33466U 08067A 10210.70573058 .00000001 00000-0 00000+0 0 4593 2 33466 064.4648 270.1697 0005299 242.9260 262.6932 02.13101777 12381 COSMOS 2449 (GLONASS) 1 33467U 08067B 10210.53368485 +.00000001 +00000-0 +00000-0 0 04659 2 33467 064.4537 270.1581 0004820 257.5987 251.5548 02.13101926012407 COSMOS 2448 (GLONASS) 1 33468U 08067C 10209.70920972 +.00000002 +00000-0 +00000-0 0 04563 2 33468 064.4576 270.1893 0005258 281.1014 224.5499 02.13101438012376 COSMOS 2456 (GLONASS) 1 36111U 09070A 10210.87460709 .00000001 00000-0 00000+0 0 2064 2 36111 064.6905 270.0927 0004760 292.4963 073.5585 02.13101784 4849 COSMOS 2457 (GLONASS) 1 36112U 09070B 10210.77231250 +.00000001 +00000-0 +00000-0 0 01960 2 36112 064.6739 270.0670 0015028 158.4219 354.2718 02.13101777004843 COSMOS 2458 (GLONASS) 1 36113U 09070C 10210.68480417 +.00000001 +00000-0 +10000-3 0 01900 2 36113 064.6771 270.0649 0001143 191.4119 209.1363 02.13101955004847 COSMOS 2459 (GLONASS) 1 36400U 10007A 10210.81796935 +.00000033 +00000-0 +10000-3 0 01388 2 36400 064.7770 149.4904 0033915 349.5444 138.4759 02.13102689003193 COSMOS 2461 (GLONASS) 1 36401U 10007B 10210.81281369 .00000033 00000-0 10000-3 0 1356 2 36401 064.7692 149.4902 0002891 096.5382 297.6834 02.13102781 3199 COSMOS 2460 (GLONASS) 1 36402U 10007C 10210.74460411 .00000033 00000-0 10000-3 0 1402 2 36402 064.7592 149.4968 0002126 261.2616 125.4986 02.13102329 3197